Home   Weather   25°16'S, 57°38'W   Past weeks
Flag for Paraguay

Past Weather in 25°16'S, 57°38'W, Paraguay — Yesterday and Last 2 Weeks

Now
66 °F

Partly sunny.


Feels Like: 66 °F
Forecast: N/A
Wind: 12 mph from Southwest

Location: Asuncion / Aeropuerto

Current Time: May 24, 2019 at 5:16:49 pm

Latest Report: May 24, 2019 at 3:00 pm


Visibility: N/A

Pressure: 30.04 "Hg

Humidity: 64%

Dew Point: 54 °F

Location of 25°16'S, 57°38'WLocation

Past Weather in 25°16'S, 57°38'W — Graph

°F

25°16'S, 57°38'W Temperature Yesterday

Maximum temperature yesterday: 63 °F (at 12:00 am)
Minimum temperature yesterday: 59 °F (at 10:05 pm)
Average temperature yesterday: 61 °F

High & Low Weather Summary for the Past Weeks

 TemperatureHumidityPressure
High88 °F (May 10, 12:00 pm)100% (May 10, 5:00 pm)30.27 "Hg (May 10, 5:00 pm)
Low52 °F (May 13, 3:00 am)53% (May 14, 1:00 pm)29.56 "Hg (May 10, 3:00 pm)
Average68 °F84%29.99 "Hg
* Reported May 9 3:00 pm — May 24 3:00 pm, 25°16'S, 57°38'W. Weather by CustomWeather, © 2019

Note: Actual official high and low records may vary slightly from our data, if they occured in-between our weather recording intervals... More about our weather records

Advertising

25°16'S, 57°38'W Weather History for the Previous 24 Hours

Scroll right to see more
 ConditionsComfort  
Time TempWeatherWind HumidityBarometerVisibility
3:00 pm
Fri, May 24
66 °FPartly sunny.12 mph64%30.04 "HgN/A
2:00 pm64 °FPartly sunny.12 mph68%30.04 "HgN/A
1:00 pm64 °FPartly sunny.12 mph73%30.07 "HgN/A
12:00 pm63 °FBroken clouds.10 mph83%30.07 "HgN/A
11:40 am61 °FPartly sunny.9 mph88%30.07 "HgN/A
11:00 am59 °FDrizzle. Low clouds.10 mph94%30.09 "Hg6 mi
10:00 am61 °FMostly cloudy.13 mph83%30.07 "HgN/A
9:30 am61 °FMostly cloudy.14 mph83%30.07 "HgN/A
9:00 am59 °FPartly sunny.12 mph88%30.07 "HgN/A
8:30 am59 °FOvercast.14 mph88%30.04 "HgN/A
8:00 am59 °FPartly sunny.14 mph82%30.04 "HgN/A
7:30 am57 °FPartly sunny.10 mph88%30.04 "HgN/A
7:00 am57 °FPartly sunny.12 mph88%30.01 "HgN/A
6:00 am55 °FPassing clouds.10 mph88%30.01 "HgN/A
5:00 am55 °FPassing clouds.10 mph88%30.01 "HgN/A
4:00 am55 °FPassing clouds.12 mph88%30.01 "HgN/A
3:00 am55 °FPassing clouds.9 mph88%30.01 "HgN/A
2:00 am57 °FPassing clouds.14 mph82%30.01 "HgN/A
1:00 am57 °FPassing clouds.10 mph88%30.04 "HgN/A
12:00 am57 °FPartly cloudy.14 mph88%30.04 "HgN/A
11:00 pm
Thu, May 23
59 °FPassing clouds.14 mph88%30.04 "HgN/A
10:05 pm59 °FDrizzle. Mostly cloudy.17 mph94%30.04 "Hg6 mi
10:00 pm61 °FDrizzle. Mostly cloudy.13 mph94%30.04 "Hg4 mi
9:00 pm61 °FDrizzle. Mostly cloudy.10 mph94%30.04 "Hg6 mi
8:00 pm61 °FDrizzle. Mostly cloudy.10 mph94%30.01 "Hg6 mi
7:00 pm61 °FDrizzle. Low clouds.10 mph94%30.01 "Hg4 mi
6:00 pm61 °FPartly cloudy.5 mph94%30.01 "HgN/A
5:00 pm63 °FDrizzle. Cloudy.6 mph94%30.01 "HgN/A
Weather by CustomWeather, © 2019

See weather overview